TimeEDT,TemperatureF,Dew PointF,Humidity,Sea Level PressureIn,VisibilityMPH,Wind Direction,Wind SpeedMPH,Gust SpeedMPH,PrecipitationIn,Events,Conditions,WindDirDegrees,DateUTC
12:51 AM,72.0,71.1,97,30.19,6.0,SSE,4.6,-,N/A,,Overcast,150,2003-08-13 04:51:00
1:51 AM,72.0,72.0,100,30.18,4.0,SE,3.5,-,N/A,,Overcast,130,2003-08-13 05:51:00
2:51 AM,72.0,71.1,97,30.18,4.0,WNW,3.5,-,N/A,,Overcast,300,2003-08-13 06:51:00
3:51 AM,71.1,71.1,100,30.19,4.0,Calm,Calm,-,N/A,,Overcast,0,2003-08-13 07:51:00
4:08 AM,71.6,71.6,100,30.22,2.5,Calm,Calm,-,N/A,,Clear,0,2003-08-13 08:08:00
4:15 AM,71.6,71.6,100,30.22,1.8,Calm,Calm,-,N/A,,Partly Cloudy,0,2003-08-13 08:15:00
4:24 AM,71.6,71.6,100,30.22,3.0,Calm,Calm,-,N/A,,Mostly Cloudy,0,2003-08-13 08:24:00
4:51 AM,71.1,71.1,100,30.20,3.0,Calm,Calm,-,N/A,,Mostly Cloudy,0,2003-08-13 08:51:00
4:58 AM,71.6,71.6,100,30.23,2.0,Calm,Calm,-,N/A,,Overcast,0,2003-08-13 08:58:00
5:05 AM,71.6,71.6,100,30.23,2.0,Calm,Calm,-,N/A,,Overcast,0,2003-08-13 09:05:00
5:31 AM,71.6,71.6,100,30.24,4.0,Calm,Calm,-,N/A,,Overcast,0,2003-08-13 09:31:00
5:51 AM,71.1,71.1,100,30.22,5.0,Calm,Calm,-,N/A,,Mostly Cloudy,0,2003-08-13 09:51:00
5:58 AM,71.6,71.6,100,30.25,1.8,Calm,Calm,-,N/A,,Mostly Cloudy,0,2003-08-13 09:58:00
6:02 AM,71.6,71.6,100,30.25,3.0,Calm,Calm,-,N/A,,Overcast,0,2003-08-13 10:02:00
6:51 AM,71.1,71.1,100,30.25,3.0,South,3.5,-,N/A,,Overcast,190,2003-08-13 10:51:00
7:02 AM,71.6,71.6,100,30.27,3.0,Calm,Calm,-,N/A,,Overcast,0,2003-08-13 11:02:00
7:51 AM,72.0,71.1,97,30.26,3.0,Calm,Calm,-,N/A,,Overcast,0,2003-08-13 11:51:00
8:26 AM,73.4,71.6,94,30.29,3.0,Calm,Calm,-,N/A,,Overcast,0,2003-08-13 12:26:00
8:51 AM,73.9,71.1,91,30.28,4.0,Calm,Calm,-,N/A,,Overcast,0,2003-08-13 12:51:00
9:51 AM,75.9,72.0,87,30.29,4.0,Calm,Calm,-,N/A,,Overcast,0,2003-08-13 13:51:00
10:51 AM,78.1,71.1,79,30.31,5.0,Calm,Calm,-,N/A,,Haze,0,2003-08-13 14:51:00
11:27 AM,78.8,71.6,78,30.33,6.0,Variable,3.5,-,N/A,,Haze,0,2003-08-13 15:27:00
11:51 AM,79.0,71.1,77,30.31,7.0,Calm,Calm,-,N/A,,Overcast,0,2003-08-13 15:51:00
12:51 PM,82.0,70.0,67,30.30,9.0,Calm,Calm,-,N/A,,Mostly Cloudy,0,2003-08-13 16:51:00
1:51 PM,82.9,70.0,65,30.30,10.0,NNW,3.5,-,N/A,,Mostly Cloudy,330,2003-08-13 17:51:00
2:51 PM,84.0,70.0,63,30.29,10.0,WNW,3.5,-,N/A,,Scattered Clouds,290,2003-08-13 18:51:00
3:51 PM,87.1,71.1,59,30.27,10.0,North,5.8,-,N/A,,Scattered Clouds,350,2003-08-13 19:51:00
4:51 PM,86.0,69.1,57,30.25,10.0,West,3.5,-,N/A,,Mostly Cloudy,280,2003-08-13 20:51:00
5:51 PM,84.0,71.1,65,30.25,10.0,SE,4.6,-,N/A,,Mostly Cloudy,140,2003-08-13 21:51:00
6:51 PM,84.0,73.0,69,30.25,9.0,Calm,Calm,-,N/A,,Scattered Clouds,0,2003-08-13 22:51:00
7:51 PM,78.1,73.0,84,30.25,10.0,NW,3.5,-,N/A,,Scattered Clouds,310,2003-08-13 23:51:00
8:51 PM,75.0,73.0,94,30.28,8.0,Calm,Calm,-,N/A,,Scattered Clouds,0,2003-08-14 00:51:00
9:51 PM,75.0,72.0,90,30.30,9.0,Calm,Calm,-,N/A,,Scattered Clouds,0,2003-08-14 01:51:00
10:51 PM,73.0,71.1,93,30.31,7.0,WNW,3.5,-,N/A,,Scattered Clouds,300,2003-08-14 02:51:00
11:51 PM,75.0,73.0,94,30.31,7.0,Calm,Calm,-,N/A,,Partly Cloudy,0,2003-08-14 03:51:00